Weather History for KCVX - August, 2013

Change the Weather History Date:

Wednesday, August 21, 2013

  Actual Average Record
Temperature  
Mean Temperature 78 °F -  
Max Temperature 87 °F 68 °F 87 °F (2013)
Min Temperature 69 °F 50 °F 42 °F (2004)
Cooling Degree Days 13    
Growing Degree Days 28 (Base 50)    
Moisture  
Dew Point 65 °F    
Average Humidity 67    
Maximum Humidity 85    
Minimum Humidity 51    
Precipitation  
Precipitation 0.00 in - - ()
Sea Level Pressure  
Sea Level Pressure 29.99 in    
Wind  
Wind Speed 9 mph (SSW)    
Max Wind Speed 22 mph    
Max Gust Speed 40 mph    
Visibility 10 miles    
Events Rain    
Averages and records for this station are not official NWS values.
T = Trace of Precipitation, MM = Missing Value Source: NWS Daily Summary

Daily Weather History Graph

Daily Weather History Graph

Search for Another Location

Airport or City:

Trip Planner

Search our weather history database for the weather conditions in past years. The results will help you decide how hot, cold, wet, or windy it might be!

Date:

Astronomy

Aug. 21, 2013 Rise Set
Actual Time 6:49 AM EDT 8:37 PM EDT
Civil Twilight 6:18 AM EDT 9:09 PM EDT
Nautical Twilight 5:39 AM EDT 9:47 PM EDT
Astronomical Twilight 4:57 AM EDT 10:28 PM EDT
Moon 8:39 PM EDT (8/21) 7:33 AM EDT (8/21)
Length of Visible Light 14h 50m
Length of Day
13h 47m
Full, 100% of the Moon is Illuminated
Aug 21
Full
Aug 28
Last Quarter
Sep 5
New
Sep 12
First Quarter
Sep 19
Full

Hourly Weather History & Observations

Time (EDT) Temp. Heat Index Dew Point Humidity Pressure Visibility Wind Dir Wind Speed Gust Speed Precip Events Conditions
12:15 AM 73.2 °F - 62.4 °F 69% 30.04 in 10.0 mi SSW 8.1 mph - N/A   Clear
12:34 AM 72.7 °F - 62.6 °F 71% 30.04 in 10.0 mi SSW 5.8 mph - N/A   Clear
12:55 AM 72.5 °F - 62.6 °F 71% 30.05 in 10.0 mi SSW 5.8 mph - N/A   Clear
1:14 AM 72.0 °F - 62.6 °F 72% 30.04 in 10.0 mi SSW 5.8 mph - N/A   Clear
1:34 AM 71.8 °F - 62.6 °F 73% 30.04 in 10.0 mi SSW 6.9 mph - N/A   Clear
1:55 AM 71.6 °F - 62.6 °F 73% 30.04 in 10.0 mi SSW 8.1 mph - N/A   Clear
2:14 AM 71.6 °F - 62.6 °F 73% 30.04 in 10.0 mi SSW 8.1 mph - N/A   Clear
2:35 AM 71.6 °F - 62.4 °F 73% 30.03 in 10.0 mi SSW 9.2 mph - N/A   Clear
2:55 AM 71.6 °F - 62.4 °F 73% 30.03 in 10.0 mi SSW 9.2 mph - N/A   Clear
3:14 AM 71.1 °F - 62.2 °F 74% 30.03 in 10.0 mi SSW 9.2 mph - N/A   Clear
3:35 AM 71.1 °F - 62.2 °F 74% 30.02 in 10.0 mi South 9.2 mph - N/A   Clear
3:55 AM 70.9 °F - 62.2 °F 74% 30.02 in 10.0 mi SSW 9.2 mph - N/A   Clear
4:14 AM 70.9 °F - 62.4 °F 75% 30.02 in 10.0 mi SSW 10.4 mph - N/A   Clear
4:35 AM 70.7 °F - 62.6 °F 75% 30.03 in 10.0 mi SSW 8.1 mph - N/A   Clear
4:55 AM 70.7 °F - 62.6 °F 75% 30.03 in 10.0 mi SSW 10.4 mph - N/A   Clear
5:14 AM 70.7 °F - 62.8 °F 76% 30.02 in 10.0 mi SSW 10.4 mph - N/A   Clear
5:35 AM 70.7 °F - 63.0 °F 76% 30.02 in 10.0 mi SSW 9.2 mph 18.4 mph N/A   Clear
5:55 AM 70.5 °F - 63.3 °F 78% 30.02 in 10.0 mi SSW 11.5 mph - N/A   Clear
6:14 AM 70.3 °F - 63.5 °F 79% 30.02 in 10.0 mi SSW 9.2 mph - N/A   Scattered Clouds
6:35 AM 70.2 °F - 63.7 °F 80% 30.02 in 10.0 mi South 8.1 mph - N/A   Scattered Clouds
6:54 AM 70.0 °F - 63.9 °F 81% 30.02 in 10.0 mi South 6.9 mph - N/A   Clear
7:15 AM 70.2 °F - 63.9 °F 80% 30.02 in 10.0 mi South 8.1 mph - N/A   Clear
7:35 AM 70.3 °F - 64.2 °F 81% 30.02 in 10.0 mi South 6.9 mph - N/A   Clear
7:54 AM 70.9 °F - 64.4 °F 80% 30.02 in 10.0 mi SSW 6.9 mph - N/A   Clear
8:15 AM 72.7 °F - 64.6 °F 76% 30.02 in 10.0 mi SSW 10.4 mph - N/A   Clear
8:35 AM 73.8 °F - 64.9 °F 74% 30.02 in 10.0 mi SSW 10.4 mph - N/A   Clear
8:54 AM 74.5 °F - 65.3 °F 73% 30.02 in 10.0 mi SSW 10.4 mph 18.4 mph N/A   Clear
9:15 AM 75.4 °F - 65.5 °F 71% 30.02 in 10.0 mi SSW 12.7 mph 20.7 mph N/A   Scattered Clouds
9:35 AM 76.8 °F - 66.2 °F 70% 30.02 in 10.0 mi SSW 10.4 mph 18.4 mph N/A   Scattered Clouds
9:54 AM 76.5 °F - 65.7 °F 69% 30.02 in 10.0 mi SSW 12.7 mph 20.7 mph N/A   Mostly Cloudy
10:15 AM 76.3 °F - 65.8 °F 70% 30.02 in 10.0 mi SSW 12.7 mph 19.6 mph N/A   Overcast
10:35 AM 76.6 °F - 66.4 °F 70% 30.02 in 10.0 mi SW 9.2 mph 16.1 mph N/A   Mostly Cloudy
10:54 AM 79.2 °F - 67.1 °F 66% 30.01 in 10.0 mi SSW 11.5 mph 17.3 mph N/A   Scattered Clouds
11:15 AM 80.2 °F 82.6 °F 67.3 °F 64% 30.01 in 10.0 mi SW 9.2 mph 19.6 mph N/A   Scattered Clouds
11:35 AM 81.5 °F 84.1 °F 67.5 °F 62% 30.02 in 10.0 mi SW 12.7 mph 19.6 mph N/A   Clear
11:54 AM 81.7 °F 84.3 °F 67.5 °F 62% 30.02 in 10.0 mi SSW 13.8 mph 20.7 mph N/A   Clear
12:15 PM 81.9 °F 84.4 °F 67.3 °F 61% 30.01 in 10.0 mi SSW 10.4 mph 18.4 mph N/A   Scattered Clouds
12:34 PM 82.9 °F 85.8 °F 67.8 °F 60% 30.00 in 10.0 mi SW 13.8 mph 19.6 mph N/A   Scattered Clouds
12:54 PM 83.5 °F 86.4 °F 68.0 °F 59% 30.00 in 10.0 mi SW 12.7 mph 23.0 mph N/A   Clear
1:15 PM 83.8 °F 86.5 °F 67.1 °F 57% 29.99 in 10.0 mi SW 11.5 mph - N/A   Clear
1:34 PM 85.1 °F 88.2 °F 68.0 °F 56% 29.98 in 10.0 mi SSW 10.4 mph 18.4 mph N/A   Clear
1:55 PM 85.1 °F 87.9 °F 67.3 °F 55% 29.98 in 10.0 mi SSW 9.2 mph 23.0 mph N/A   Clear
2:14 PM 85.1 °F 87.9 °F 67.1 °F 55% 29.97 in 10.0 mi SW 17.3 mph 24.2 mph N/A   Clear
2:34 PM 85.3 °F 88.2 °F 67.3 °F 55% 29.96 in 10.0 mi SSW 10.4 mph 25.3 mph N/A   Clear
2:55 PM 86.4 °F 89.4 °F 67.5 °F 53% 29.95 in 10.0 mi SSW 17.3 mph 25.3 mph N/A   Clear
3:14 PM 87.1 °F 90.6 °F 68.0 °F 53% 29.94 in 10.0 mi SW 15.0 mph 23.0 mph N/A   Clear
3:35 PM 86.9 °F 90.3 °F 67.8 °F 53% 29.95 in 10.0 mi SSW 16.1 mph 24.2 mph N/A   Clear
3:55 PM 86.2 °F 89.4 °F 67.6 °F 54% 29.95 in 10.0 mi SW 13.8 mph 20.7 mph N/A   Clear
4:14 PM 87.3 °F 90.5 °F 67.8 °F 52% 29.95 in 10.0 mi SSW 10.4 mph 18.4 mph N/A   Clear
4:35 PM 87.8 °F 91.1 °F 67.6 °F 51% 29.94 in 10.0 mi SW 13.8 mph 19.6 mph N/A   Clear
4:54 PM 86.9 °F 90.3 °F 67.6 °F 53% 29.93 in 10.0 mi SW 10.4 mph - N/A   Clear
5:15 PM 87.1 °F 89.9 °F 67.1 °F 51% 29.92 in 10.0 mi SW 16.1 mph 21.9 mph N/A   Clear
5:35 PM 86.5 °F 89.3 °F 67.1 °F 52% 29.93 in 10.0 mi SW 12.7 mph 20.7 mph N/A   Clear
5:54 PM 86.0 °F 88.5 °F 66.7 °F 52% 29.92 in 10.0 mi SW 11.5 mph 18.4 mph N/A   Clear
6:15 PM 85.6 °F 88.5 °F 67.1 °F 54% 29.92 in 10.0 mi SW 11.5 mph - N/A   Clear
6:35 PM 84.7 °F 87.1 °F 66.6 °F 54% 29.92 in 10.0 mi SW 8.1 mph 16.1 mph N/A   Clear
6:54 PM 82.9 °F 85.2 °F 66.4 °F 57% 29.93 in 10.0 mi SW 6.9 mph - N/A   Mostly Cloudy
7:15 PM 81.9 °F 84.1 °F 66.4 °F 59% 29.92 in 10.0 mi SW 5.8 mph - N/A   Mostly Cloudy
7:35 PM 80.8 °F 83.1 °F 66.7 °F 62% 29.93 in 10.0 mi SW 4.6 mph - N/A   Mostly Cloudy
7:54 PM 80.4 °F 82.7 °F 66.7 °F 63% 29.94 in 10.0 mi WSW 6.9 mph - N/A   Overcast
8:15 PM 80.2 °F 82.6 °F 67.1 °F 64% 29.94 in 10.0 mi WSW 5.8 mph - N/A   Overcast
8:34 PM 79.9 °F - 67.1 °F 65% 29.94 in 10.0 mi SSW 5.8 mph - N/A   Scattered Clouds
8:55 PM 79.7 °F - 67.1 °F 65% 29.95 in 10.0 mi SW 5.8 mph - N/A   Mostly Cloudy
9:15 PM 77.0 °F - 66.7 °F 70% 29.95 in 10.0 mi West 6.9 mph 19.6 mph N/A   Overcast
9:34 PM 76.6 °F - 66.6 °F 71% 29.94 in 10.0 mi SW 10.4 mph - N/A   Scattered Clouds
9:55 PM 76.5 °F - 66.6 °F 71% 29.97 in 10.0 mi West 8.1 mph - N/A   Clear
10:14 PM 77.0 °F - 66.2 °F 69% 29.98 in 10.0 mi WSW 8.1 mph - N/A   Scattered Clouds
10:34 PM 73.0 °F - 68.2 °F 85% 29.99 in 7.0 mi WSW 21.9 mph 40.3 mph N/A   Mostly Cloudy
10:55 PM 72.9 °F - 63.7 °F 73% 29.99 in 3.0 mi WSW 16.1 mph 21.9 mph N/A Rain Rain
11:14 PM 69.4 °F - 64.6 °F 84% 29.97 in 10.0 mi SSW 10.4 mph - N/A Rain Rain
11:34 PM 69.8 °F - 64.6 °F 83% 29.96 in 7.0 mi South 18.4 mph 24.2 mph N/A Rain Rain
11:55 PM 70.9 °F - 62.8 °F 75% 29.96 in 7.0 mi SSW 20.7 mph 28.8 mph N/A Rain Heavy Rain